SES-4

Last updated on Tue Sep 22 2026 00:03:12 GMT+0000 (Coordinated Universal Time)

1 38087U 12007A 26264.27092971 -.00000172 00000+0 00000+0 0 9992 2 38087 0.0139 58.3497 0002346 134.2670 243.0839 1.00271229 53185
UTC large
Height (km)
Speed (km/s)
/
Latitude / Longitude
Inclination (degrees)
Orbital Period (minutes)
Azimuth
Elevation
Range (km)
Doppler Factor

Next 0 passes for location: London (51.5072 / 0.1276)

No passes found over London.
SES-4